Weather History for KTSP - May, 2013

Change the Weather History Date:

Thursday, May 2, 2013

  Actual Average Record
Temperature  
Mean Temperature 60 °F -  
Max Temperature 73 °F 68 °F 78 °F (2015)
Min Temperature 42 °F 40 °F 41 °F (2015)
Degree Days  
Heating Degree Days 6    
Growing Degree Days 10 (Base 50)    
Moisture  
Dew Point 2 °F    
Average Humidity 10    
Maximum Humidity 18    
Minimum Humidity 6    
Precipitation  
Precipitation 0.00 in - - ()
Sea Level Pressure  
Sea Level Pressure 30.29 in    
Wind  
Wind Speed 14 mph (SE)    
Max Wind Speed 28 mph    
Max Gust Speed 37 mph    
Visibility 10 miles    
Events      
Averages and records for this station are not official NWS values.
T = Trace of Precipitation, MM = Missing Value Source: NWS Daily Summary

Daily Weather History Graph

Daily Weather History Graph

Search for Another Location

Airport or City:

Trip Planner

Search our weather history database for the weather conditions in past years. The results will help you decide how hot, cold, wet, or windy it might be!

Date:

Astronomy

May. 02, 2013 Rise Set
Actual Time 6:01 AM PDT 7:40 PM PDT
Civil Twilight 5:34 AM PDT 8:07 PM PDT
Nautical Twilight 5:01 AM PDT 8:40 PM PDT
Astronomical Twilight 4:26 AM PDT 9:15 PM PDT
Moon 1:35 AM PDT (5/2) 12:51 PM PDT (5/2)
Length of Visible Light 14h 33m
Length of Day
13h 39m
Waning Gibbous, 46% of the Moon is Illuminated
May 2
Waning Gibbous
May 9
New
May 17
First Quarter
May 24
Full
May 31
Last Quarter

Hourly Weather History & Observations

Time (PDT) Temp. Windchill Dew Point Humidity Pressure Visibility Wind Dir Wind Speed Gust Speed Precip Events Conditions
12:15 AM 50.0 °F - -0.4 °F 13% 30.26 in 10.0 mi SE 6.9 mph - N/A   Clear
12:35 AM 48.2 °F - 1.4 °F 15% 30.26 in 10.0 mi ESE 6.9 mph - N/A   Clear
12:55 AM 48.2 °F - -0.4 °F 13% 30.26 in 10.0 mi ESE 5.8 mph - N/A   Clear
1:15 AM 48.2 °F - 1.4 °F 15% 30.26 in 10.0 mi SE 5.8 mph - N/A   Clear
1:35 AM 48.2 °F - -2.2 °F 12% 30.26 in 10.0 mi SE 10.4 mph - N/A   Clear
1:55 AM 46.4 °F 41.5 °F 1.4 °F 16% 30.26 in 10.0 mi SE 10.4 mph - N/A   Clear
2:15 AM 46.4 °F 41.5 °F 1.4 °F 16% 30.26 in 10.0 mi ESE 10.4 mph - N/A   Clear
2:35 AM 48.2 °F - -0.4 °F 13% 30.27 in 10.0 mi SE 10.4 mph - N/A   Clear
2:55 AM 50.0 °F - -4.0 °F 11% 30.27 in 10.0 mi ESE 10.4 mph - N/A   Clear
3:15 AM 51.8 °F - -2.2 °F 11% 30.28 in 10.0 mi ESE 9.2 mph - N/A   Clear
3:35 AM 53.6 °F - -0.4 °F 11% 30.28 in 10.0 mi SE 11.5 mph - N/A   Clear
3:55 AM 53.6 °F - -4.0 °F 9% 30.28 in 10.0 mi ESE 13.8 mph - N/A   Clear
4:15 AM 53.6 °F - -2.2 °F 10% 30.28 in 10.0 mi SE 15.0 mph 21.9 mph N/A   Clear
4:35 AM 53.6 °F - -0.4 °F 11% 30.29 in 10.0 mi SE 17.3 mph - N/A   Clear
4:55 AM 53.6 °F - -0.4 °F 11% 30.29 in 10.0 mi SE 17.3 mph 24.2 mph N/A   Clear
5:15 AM 53.6 °F - -0.4 °F 11% 30.30 in 10.0 mi SE 17.3 mph 23.0 mph N/A   Clear
5:35 AM 51.8 °F - 1.4 °F 13% 30.30 in 10.0 mi SE 16.1 mph 21.9 mph N/A   Clear
5:55 AM 51.8 °F - -0.4 °F 12% 30.31 in 10.0 mi SE 17.3 mph - N/A   Clear
6:15 AM 51.8 °F - 1.4 °F 13% 30.31 in 10.0 mi SE 16.1 mph 25.3 mph N/A   Clear
6:35 AM 51.8 °F - 3.2 °F 14% 30.32 in 10.0 mi SE 17.3 mph 24.2 mph N/A   Clear
6:55 AM 53.6 °F - 3.2 °F 13% 30.32 in 10.0 mi SE 19.6 mph 25.3 mph N/A   Clear
7:15 AM 55.4 °F - 3.2 °F 12% 30.33 in 10.0 mi SE 21.9 mph 27.6 mph N/A   Clear
7:35 AM 55.4 °F - 3.2 °F 12% 30.33 in 10.0 mi SE 21.9 mph 33.4 mph N/A   Clear
7:55 AM 57.2 °F - 3.2 °F 11% 30.33 in 10.0 mi SE 23.0 mph 33.4 mph N/A   Clear
8:15 AM 57.2 °F - 3.2 °F 11% 30.33 in 9.0 mi SE 24.2 mph 33.4 mph N/A   Clear
8:35 AM 59.0 °F - 1.4 °F 10% 30.33 in 9.0 mi SE 24.2 mph 34.5 mph N/A   Clear
8:55 AM 59.0 °F - 1.4 °F 10% 30.34 in 10.0 mi SE 26.5 mph 34.5 mph N/A   Clear
9:15 AM 59.0 °F - 3.2 °F 11% 30.34 in 10.0 mi SE 27.6 mph 34.5 mph N/A   Clear
9:35 AM 60.8 °F - 3.2 °F 10% 30.34 in 9.0 mi SE 26.5 mph 34.5 mph N/A   Clear
9:55 AM 62.6 °F - 3.2 °F 9% 30.35 in 10.0 mi SE 26.5 mph 33.4 mph N/A   Clear
10:15 AM 62.6 °F - 1.4 °F 9% 30.34 in 10.0 mi SE 25.3 mph 35.7 mph N/A   Clear
10:35 AM 62.6 °F - 3.2 °F 9% 30.34 in 10.0 mi ESE 25.3 mph 32.2 mph N/A   Clear
10:55 AM 64.4 °F - 1.4 °F 8% 30.34 in 9.0 mi ESE 27.6 mph 33.4 mph N/A   Clear
11:15 AM 64.4 °F - 3.2 °F 9% 30.35 in 10.0 mi SE 26.5 mph 36.8 mph N/A   Clear
11:35 AM 66.2 °F - 1.4 °F 8% 30.35 in 9.0 mi ESE 23.0 mph 32.2 mph N/A   Clear
11:55 AM 66.2 °F - 1.4 °F 8% 30.34 in 10.0 mi SE 24.2 mph 33.4 mph N/A   Clear
12:15 PM 68.0 °F - 1.4 °F 7% 30.34 in 10.0 mi SE 21.9 mph 33.4 mph N/A   Clear
12:35 PM 69.8 °F - 3.2 °F 7% 30.33 in 10.0 mi ESE 19.6 mph 28.8 mph N/A   Clear
12:55 PM 69.8 °F - 6.8 °F 9% 30.33 in 10.0 mi ESE 20.7 mph 28.8 mph N/A   Clear
1:15 PM 71.6 °F - 3.2 °F 7% 30.32 in 10.0 mi SE 19.6 mph 29.9 mph N/A   Clear
1:35 PM 71.6 °F - 5.0 °F 7% 30.32 in 10.0 mi SE 20.7 mph 29.9 mph N/A   Clear
1:55 PM 71.6 °F - 5.0 °F 7% 30.32 in 10.0 mi ESE 16.1 mph 26.5 mph N/A   Clear
2:15 PM 71.6 °F - 1.4 °F 6% 30.31 in 10.0 mi ESE 19.6 mph 28.8 mph N/A   Clear
2:35 PM 71.6 °F - 3.2 °F 7% 30.31 in 10.0 mi SE 13.8 mph 28.8 mph N/A   Clear
2:55 PM 71.6 °F - 1.4 °F 6% 30.30 in 10.0 mi ESE 19.6 mph 26.5 mph N/A   Clear
3:15 PM 71.6 °F - 3.2 °F 7% 30.29 in 10.0 mi SE 17.3 mph 25.3 mph N/A   Clear
3:35 PM 71.6 °F - 5.0 °F 7% 30.28 in 10.0 mi SE 20.7 mph 25.3 mph N/A   Clear
3:55 PM 73.4 °F - 1.4 °F 6% 30.28 in 10.0 mi SE 17.3 mph 23.0 mph N/A   Clear
4:15 PM 73.4 °F - 6.8 °F 8% 30.27 in 10.0 mi SE 17.3 mph 23.0 mph N/A   Clear
4:35 PM 73.4 °F - 5.0 °F 7% 30.27 in 10.0 mi ESE 16.1 mph 21.9 mph N/A   Clear
4:55 PM 71.6 °F - -0.4 °F 6% 30.27 in 10.0 mi SE 12.7 mph 23.0 mph N/A   Clear
5:15 PM 73.4 °F - 1.4 °F 6% 30.27 in 10.0 mi SE 16.1 mph 21.9 mph N/A   Clear
5:35 PM 71.6 °F - -0.4 °F 6% 30.26 in 10.0 mi ESE 11.5 mph 19.6 mph N/A   Clear
5:55 PM 71.6 °F - 1.4 °F 6% 30.26 in 10.0 mi ESE 9.2 mph 24.2 mph N/A   Clear
6:15 PM 71.6 °F - 1.4 °F 6% 30.25 in 10.0 mi SE 12.7 mph 16.1 mph N/A   Clear
6:35 PM 69.8 °F - 1.4 °F 7% 30.25 in 10.0 mi SE 12.7 mph - N/A   Clear
6:55 PM 68.0 °F - 1.4 °F 7% 30.25 in 10.0 mi ESE 8.1 mph - N/A   Clear
7:15 PM 66.2 °F - 5.0 °F 9% 30.25 in 10.0 mi SE 10.4 mph - N/A   Clear
7:35 PM 60.8 °F - 5.0 °F 11% 30.25 in 10.0 mi SE 10.4 mph - N/A   Clear
7:55 PM 59.0 °F - 3.2 °F 11% 30.25 in 10.0 mi ESE 9.2 mph - N/A   Clear
8:15 PM 59.0 °F - -0.4 °F 9% 30.25 in 10.0 mi East 6.9 mph - N/A   Clear
8:35 PM 57.2 °F - -0.4 °F 10% 30.25 in 10.0 mi ESE 5.8 mph - N/A   Clear
8:55 PM 57.2 °F - -2.2 °F 9% 30.25 in 10.0 mi ESE 6.9 mph - N/A   Clear
9:15 PM 51.8 °F - 1.4 °F 13% 30.25 in 10.0 mi SE 8.1 mph - N/A   Clear
9:35 PM 50.0 °F - 1.4 °F 14% 30.25 in 10.0 mi SE 9.2 mph - N/A   Clear
9:55 PM 50.0 °F - 1.4 °F 14% 30.26 in 10.0 mi SE 9.2 mph - N/A   Clear
10:15 PM 48.2 °F - 5.0 °F 17% 30.25 in 10.0 mi ESE 8.1 mph - N/A   Clear
10:35 PM 46.4 °F 42.9 °F 1.4 °F 16% 30.25 in 10.0 mi SE 6.9 mph - N/A   Clear
10:55 PM 46.4 °F 41.9 °F 3.2 °F 17% 30.25 in - SE 9.2 mph - N/A   Unknown
11:15 PM 46.4 °F 44.3 °F -2.2 °F 13% 30.25 in 10.0 mi East 4.6 mph - N/A   Clear
11:35 PM 46.4 °F 41.9 °F 1.4 °F 16% 30.25 in 10.0 mi SE 9.2 mph - N/A   Clear
11:55 PM 42.8 °F 38.0 °F 1.4 °F 18% 30.25 in 10.0 mi ESE 8.1 mph - N/A   Clear